Location: Arrodets-la-Barthe
(43.0306°N, 0.2829°E)
Time: 19:09:22
(UTC+00:00)

Cosmos 371 Rocket - Pass Details

Date: 24 October 2021
Orbit: 684 x 699 km, 74.0° (Epoch: 02 December)

Event Time Altitude Azimuth Distance (km) Brightness Sun altitude
Rises 18:04:04 0° 204° (SSW) 3,054 7.0 -12.0°
Reaches altitude 10° 18:06:22 10° 206° (SSW) 2,144 6.3 -12.4°
Maximum altitude 18:11:12 72° 291° (WNW) 733 3.6 -13.3°
Drops below altitude 10° 18:16:05 10° 16° (NNE) 2,167 5.6 -14.2°
Sets 18:18:26 0° 19° (NNE) 3,090 6.4 -14.6°
